FW3915 Weather Reports


time (UTC)temp
C
wind
direction
speed
KPH
gust
KPH
rain 1hr
cm
rain 24hr
cm
rain mn
cm
humidity
%
barometer
mb
20260502163545 22 260 0.0 3.2 0.00 0.00 0.00 27 1019.8
20260502163049 23 260 0.0 3.2 0.00 0.00 0.00 32 1020.0
20260502162539 23 110 0.0 4.8 0.00 0.00 0.00 32 1020.0
20260502162040 23 110 1.6 4.8 0.00 0.00 0.00 28 1020.2
20260502161542 23 111 1.6 4.8 0.00 0.00 0.00 28 1020.2
20260502161039 23 111 1.6 6.4 0.00 0.00 0.00 28 1020.3
20260502160538 23 110 0.0 6.4 0.00 0.00 0.00 29 1020.4
20260502152034 23 64 1.6 4.8 0.00 0.00 0.00 29 1020.7
20260502151539 23 57 1.6 4.8 0.00 0.00 0.00 28 1020.9
20260502151034 23 104 0.0 4.8 0.00 0.00 0.00 26 1021.0
20260502150532 23 103 0.0 3.2 0.00 0.00 0.00 31 1021.0
20260502130513 23 113 1.6 9.7 0.00 0.00 0.00 29 1022.8
20260502123508 22 110 0.0 6.4 0.00 0.00 0.00 34 1023.2
20260502123014 23 81 1.6 9.7 0.00 0.00 0.00 37 1023.3
20260502122507 22 108 1.6 9.7 0.00 0.00 0.00 33 1023.3
20260502122010 22 303 0.0 6.4 0.00 0.00 0.00 34 1023.4
20260502121510 22 42 1.6 9.7 0.00 0.00 0.00 33 1023.5
20260502121005 22 214 0.0 9.7 0.00 0.00 0.00 36 1023.5
20260502120504 22 112 1.6 6.4 0.00 0.00 0.00 30 1023.6
20260502115506 22 120 0.0 6.4 0.00 0.00 0.00 31 1023.6
20260502115003 22 120 3.2 8.0 0.00 0.00 0.00 35 1023.8
20260502114501 22 31 3.2 8.0 0.00 0.00 0.00 31 1023.8
20260502114057 22 110 1.6 9.7 0.00 0.00 0.00 35 1023.9
20260502113556 22 83 1.6 9.7 0.00 0.00 0.00 32 1024.0
20260502113056 21 56 0.0 6.4 0.00 0.00 0.00 32 1024.0
20260502112555 21 112 1.6 8.0 0.00 0.00 0.00 32 1024.1
20260502112054 21 96 1.6 8.0 0.00 0.00 0.00 32 1024.1
20260502111556 21 106 0.0 6.4 0.00 0.00 0.00 29 1024.3
20260502111053 21 120 1.6 6.4 0.00 0.00 0.00 30 1024.4
20260502110553 21 62 1.6 4.8 0.00 0.00 0.00 31 1024.4
20260502110009 21 115 0.0 6.4 0.00 0.00 0.00 28 1024.5
20260502105509 21 84 1.6 6.4 0.00 0.00 0.00 33 1024.5
20260502105007 21 118 0.0 4.8 0.00 0.00 0.00 31 1024.5
20260502104506 21 348 1.6 4.8 0.00 0.00 0.00 32 1024.7
20260502104004 21 91 0.0 4.8 0.00 0.00 0.00 32 1024.7
20260502103503 21 29 1.6 6.4 0.00 0.00 0.00 32 1024.8
20260502103002 21 76 0.0 4.8 0.00 0.00 0.00 36 1024.9
20260502102502 21 105 1.6 4.8 0.00 0.00 0.00 33 1025.0
20260502102002 21 85 0.0 4.8 0.00 0.00 0.00 34 1025.1
20260502101626 21 103 0.0 4.8 0.00 0.00 0.00 37 1025.1
20260502101058 20 115 1.6 4.8 0.00 0.00 0.00 36 1025.1
20260502100558 20 10 0.0 9.7 0.00 0.00 0.00 35 1025.2
20260502091505 19 105 0.0 3.2 0.00 0.00 0.00 43 1025.8
20260502091004 20 113 0.0 6.4 0.00 0.00 0.00 44 1025.8
20260502090504 19 114 3.2 6.4 0.00 0.00 0.00 42 1025.8
20260502071502 14 108 1.6 4.8 0.00 0.00 0.00 63 1026.7
20260502071100 13 111 0.0 4.8 0.00 0.00 0.00 65 1026.7
20260502070559 13 111 0.0 4.8 0.00 0.00 0.00 66 1026.8
20260502070123 13 109 0.0 0.0 0.00 0.00 0.00 68 1026.8
20260502065557 12 109 0.0 0.0 0.00 0.00 0.00 70 1026.8
20260502065055 12 109 0.0 3.2 0.00 0.00 0.00 69 1026.8
20260502064556 12 109 0.0 4.8 0.00 0.00 0.00 71 1026.8
20260502064154 12 103 1.6 4.8 0.00 0.00 0.00 70 1026.8
20260502063550 11 236 0.0 1.6 0.00 0.00 0.00 73 1026.9
20260502063057 11 243 0.0 0.0 0.00 0.00 0.00 74 1026.9
20260502062548 10 243 0.0 0.0 0.00 0.00 0.00 76 1026.9
20260502062047 10 243 0.0 1.6 0.00 0.00 0.00 78 1027.0
20260502061544 9 243 0.0 1.6 0.00 0.00 0.00 79 1026.9
20260502061044 8 243 0.0 0.0 0.00 0.00 0.00 81 1026.9
20260502060542 8 244 0.0 1.6 0.00 0.00 0.00 82 1026.9
20260502060041 8 247 0.0 1.6 0.00 0.00 0.00 82 1026.8
20260502055543 8 247 0.0 0.0 0.00 0.00 0.00 83 1026.9
20260502055040 7 247 0.0 0.0 0.00 0.00 0.00 85 1026.8
20260502054542 7 247 0.0 0.0 0.00 0.00 0.00 85 1026.9
20260502054039 7 247 0.0 0.0 0.00 0.00 0.00 86 1026.9
20260502053538 6 247 0.0 0.0 0.00 0.00 0.00 87 1027.0
20260502053038 6 247 0.0 1.6 0.00 0.00 0.00 88 1026.9
20260502052537 5 249 0.0 1.6 0.00 0.00 0.00 88 1026.9
20260502052037 5 248 0.0 1.6 0.00 0.00 0.00 88 1026.9
20260502051548 5 249 0.0 3.2 0.00 0.00 0.00 88 1026.9
20260502051036 5 247 0.0 3.2 0.00 0.00 0.00 89 1026.9
20260502050536 5 247 0.0 0.0 0.00 0.00 0.00 89 1026.9
20260502050036 5 246 0.0 0.0 0.00 0.00 0.00 89 1026.9
20260502045538 4 247 0.0 0.0 0.00 0.00 0.00 89 1026.8
20260502045035 4 246 0.0 0.0 0.00 0.00 0.00 89 1026.8
20260502044534 4 246 0.0 0.0 0.00 0.00 0.00 89 1026.8
20260502044034 3 246 0.0 0.0 0.00 0.00 0.00 89 1026.8
20260502043533 3 246 0.0 0.0 0.00 0.00 0.00 89 1026.8
20260502043033 3 246 0.0 0.0 0.00 0.00 0.00 89 1026.9
20260502042533 3 246 0.0 0.0 0.00 0.00 0.00 89 1026.8
20260502042033 3 246 0.0 0.0 0.00 0.00 0.00 89 1026.8
20260502041535 3 245 0.0 0.0 0.00 0.00 0.00 89 1026.8
20260502041031 3 246 0.0 0.0 0.00 0.00 0.00 89 1026.8
20260502040534 3 246 0.0 0.0 0.00 0.00 0.00 89 1026.8
20260502040031 3 246 0.0 0.0 0.00 0.00 0.00 88 1026.9
20260502035531 3 246 0.0 0.0 0.00 0.00 0.00 88 1026.9
20260502035029 3 245 0.0 0.0 0.00 0.00 0.00 88 1026.7
20260502034530 3 246 0.0 0.0 0.00 0.00 0.00 88 1026.8
20260502034032 3 246 0.0 0.0 0.00 0.00 0.00 88 1026.8
20260502033528 3 246 0.0 0.0 0.00 0.00 0.00 88 1026.8
20260502033029 3 245 0.0 0.0 0.00 0.00 0.00 88 1026.8
20260502032528 4 245 0.0 0.0 0.00 0.00 0.00 88 1026.8
20260502032027 3 245 0.0 0.0 0.00 0.00 0.00 88 1026.9
20260502031527 3 245 0.0 0.0 0.00 0.00 0.00 88 1026.9
20260502031027 3 245 0.0 0.0 0.00 0.00 0.00 88 1026.9
20260502030527 3 245 0.0 0.0 0.00 0.00 0.00 88 1026.9
20260502030027 3 246 0.0 0.0 0.00 0.00 0.00 87 1026.9
20260502025526 3 246 0.0 0.0 0.00 0.00 0.00 87 1026.9
20260502025025 3 246 0.0 0.0 0.00 0.00 0.00 87 1026.9
20260502024530 3 246 0.0 0.0 0.00 0.00 0.00 87 1026.9
20260502024025 3 246 0.0 0.0 0.00 0.00 0.00 87 1027.0
20260502023524 4 246 0.0 0.0 0.00 0.00 0.00 87 1027.0
20260502023024 4 247 0.0 0.0 0.00 0.00 0.00 87 1027.0
20260502022523 4 246 0.0 0.0 0.00 0.00 0.00 87 1027.0
20260502022023 4 246 0.0 0.0 0.00 0.00 0.00 87 1027.0
20260502021522 4 245 0.0 0.0 0.00 0.00 0.00 86 1027.0
20260502021022 4 245 0.0 0.0 0.00 0.00 0.00 87 1027.0
20260502020522 4 245 0.0 0.0 0.00 0.00 0.00 87 1027.0
20260502020021 5 247 0.0 0.0 0.00 0.00 0.00 86 1027.0
20260502015520 5 247 0.0 0.0 0.00 0.00 0.00 86 1027.0
20260502015020 5 247 0.0 0.0 0.00 0.00 0.00 86 1027.1
20260502014520 5 247 0.0 0.0 0.00 0.00 0.00 86 1027.1
20260502014018 5 247 0.0 0.0 0.00 0.00 0.00 85 1027.1
20260502013517 5 247 0.0 0.0 0.00 0.00 0.00 86 1027.1
20260502013017 5 247 0.0 0.0 0.00 0.00 0.00 85 1027.2
20260502012516 5 247 0.0 0.0 0.00 0.00 0.00 85 1027.2
20260502012015 5 247 0.0 0.0 0.00 0.00 0.00 85 1027.2
20260502011522 5 248 0.0 0.0 0.00 0.00 0.00 84 1027.2
20260502011013 5 248 0.0 0.0 0.00 0.00 0.00 85 1027.3
20260502010512 5 248 0.0 0.0 0.00 0.00 0.00 84 1027.2
20260502010015 5 247 0.0 0.0 0.00 0.00 0.00 84 1027.3
20260502005512 6 247 0.0 0.0 0.00 0.00 0.00 84 1027.4
20260502005011 6 247 0.0 0.0 0.00 0.00 0.00 84 1027.4
20260502004510 6 247 0.0 0.0 0.00 0.00 0.00 84 1027.4
20260502004011 6 247 0.0 0.0 0.00 0.00 0.00 84 1027.4
20260502003507 6 247 0.0 0.0 0.00 0.00 0.00 83 1027.4
20260502003008 6 247 0.0 0.0 0.00 0.00 0.00 83 1027.5
20260502002507 6 247 0.0 0.0 0.00 0.00 0.00 83 1027.5
20260502002007 6 247 0.0 0.0 0.00 0.00 0.00 83 1027.5
20260502001506 6 247 0.0 0.0 0.00 0.00 0.00 82 1027.5
20260502001006 6 247 0.0 0.0 0.00 0.00 0.00 82 1027.5
20260502000505 6 248 0.0 0.0 0.00 0.00 0.00 82 1027.5
20260502000005 6 248 0.0 0.0 0.00 0.00 0.00 82 1027.5
20260501235506 6 247 0.0 0.0 0.00 0.00 0.00 82 1027.5
20260501235003 6 249 0.0 0.0 0.00 0.00 0.00 82 1027.6
20260501234503 6 250 0.0 0.0 0.00 0.00 0.00 81 1027.6
20260501234002 6 249 0.0 0.0 0.00 0.00 0.00 81 1027.6
20260501233502 7 249 0.0 0.0 0.00 0.00 0.00 81 1027.6
20260501233004 7 249 0.0 0.0 0.00 0.00 0.00 81 1027.7
20260501232603 7 249 0.0 0.0 0.00 0.00 0.00 80 1027.7
20260501232100 7 249 0.0 0.0 0.00 0.00 0.00 80 1027.7
20260501231558 7 248 0.0 0.0 0.00 0.00 0.00 80 1027.7
20260501231059 7 249 0.0 0.0 0.00 0.00 0.00 79 1027.7
20260501230600 7 250 0.0 0.0 0.00 0.00 0.00 79 1027.6
20260501230504 7 249 0.0 0.0 0.00 0.00 0.00 79 1027.6
20260501230156 7 249 0.0 0.0 0.00 0.00 0.00 79 1027.7
20260501225551 7 249 0.0 0.0 0.00 0.00 0.00 78 1027.6
20260501225050 7 249 0.0 0.0 0.00 0.00 0.00 79 1027.7
20260501224550 7 250 0.0 0.0 0.00 0.00 0.00 79 1027.7
20260501224049 7 250 0.0 0.0 0.00 0.00 0.00 78 1027.7
20260501223544 8 251 0.0 0.0 0.00 0.00 0.00 78 1027.8
20260501223043 8 252 0.0 0.0 0.00 0.00 0.00 78 1027.8
20260501222542 8 251 0.0 0.0 0.00 0.00 0.00 77 1027.7
20260501222041 8 250 0.0 0.0 0.00 0.00 0.00 77 1027.7
20260501221540 8 251 0.0 0.0 0.00 0.00 0.00 77 1027.8
20260501221040 8 251 0.0 0.0 0.00 0.00 0.00 77 1027.8
20260501220539 8 251 0.0 0.0 0.00 0.00 0.00 77 1027.8
20260501220140 8 251 0.0 0.0 0.00 0.00 0.00 76 1027.8
20260501215542 8 249 0.0 0.0 0.00 0.00 0.00 76 1027.8
20260501215042 8 249 0.0 0.0 0.00 0.00 0.00 76 1027.7
20260501214542 8 249 0.0 0.0 0.00 0.00 0.00 75 1027.7
20260501214041 9 249 0.0 0.0 0.00 0.00 0.00 74 1027.7
20260501213542 9 249 0.0 0.0 0.00 0.00 0.00 74 1027.8
20260501213042 9 249 0.0 0.0 0.00 0.00 0.00 74 1027.7
20260501212541 9 249 0.0 0.0 0.00 0.00 0.00 73 1027.8
20260501212040 10 249 0.0 0.0 0.00 0.00 0.00 73 1027.8
20260501211541 10 5 0.0 0.0 0.00 0.00 0.00 72 1027.9
20260501211041 10 250 0.0 0.0 0.00 0.00 0.00 72 1027.8
20260501210540 10 5 0.0 0.0 0.00 0.00 0.00 72 1027.8
20260501210143 10 5 0.0 0.0 0.00 0.00 0.00 72 1027.8
20260501205550 10 5 0.0 0.0 0.00 0.00 0.00 72 1027.8
20260501205048 10 251 0.0 0.0 0.00 0.00 0.00 71 1027.9
20260501204549 10 5 0.0 0.0 0.00 0.00 0.00 71 1027.9
20260501204046 10 249 0.0 0.0 0.00 0.00 0.00 70 1027.9
20260501203545 10 249 0.0 0.0 0.00 0.00 0.00 70 1027.8
20260501203045 10 5 0.0 0.0 0.00 0.00 0.00 70 1027.8
20260501202545 11 249 0.0 0.0 0.00 0.00 0.00 69 1027.9
20260501202146 11 249 0.0 0.0 0.00 0.00 0.00 68 1027.8
20260501201545 11 247 0.0 0.0 0.00 0.00 0.00 68 1027.8
20260501201045 11 247 0.0 0.0 0.00 0.00 0.00 67 1027.8
20260501200548 11 247 0.0 0.0 0.00 0.00 0.00 67 1027.8
20260501200144 11 247 0.0 0.0 0.00 0.00 0.00 67 1027.7
20260501195551 11 247 0.0 0.0 0.00 0.00 0.00 66 1027.9
20260501195052 12 246 0.0 0.0 0.00 0.00 0.00 65 1027.8
20260501194551 12 245 0.0 0.0 0.00 0.00 0.00 65 1027.7
20260501194052 12 245 0.0 0.0 0.00 0.00 0.00 66 1027.8
20260501193549 12 244 0.0 0.0 0.00 0.00 0.00 66 1027.8
20260501193050 12 244 0.0 1.6 0.00 0.00 0.00 66 1027.8
20260501192549 12 243 0.0 1.6 0.00 0.00 0.00 66 1027.8
20260501192049 12 243 0.0 0.0 0.00 0.00 0.00 65 1027.8
20260501191557 12 243 0.0 0.0 0.00 0.00 0.00 65 1027.8
20260501191049 12 243 0.0 0.0 0.00 0.00 0.00 63 1027.7
20260501190549 13 242 0.0 0.0 0.00 0.00 0.00 62 1027.7
20260501190148 13 242 0.0 0.0 0.00 0.00 0.00 62 1027.7
20260501185540 13 242 0.0 0.0 0.00 0.00 0.00 61 1027.6
20260501185041 13 243 0.0 0.0 0.00 0.00 0.00 61 1027.6
20260501184540 13 243 0.0 0.0 0.00 0.00 0.00 60 1027.6
20260501184042 13 243 0.0 0.0 0.00 0.00 0.00 59 1027.5
20260501183540 14 250 0.0 0.0 0.00 0.00 0.00 58 1027.6
20260501183056 14 242 0.0 0.0 0.00 0.00 0.00 58 1027.5
20260501182539 14 242 0.0 0.0 0.00 0.00 0.00 57 1027.5
20260501182042 14 241 0.0 0.0 0.00 0.00 0.00 58 1027.4
20260501181557 15 241 0.0 0.0 0.00 0.00 0.00 57 1027.5
20260501181039 15 241 0.0 0.0 0.00 0.00 0.00 56 1027.4
20260501180539 15 241 0.0 0.0 0.00 0.00 0.00 54 1027.4
20260501180139 16 241 0.0 0.0 0.00 0.00 0.00 53 1027.4
20260501175516 16 241 0.0 0.0 0.00 0.00 0.00 51 1027.4
20260501175019 17 241 0.0 0.0 0.00 0.00 0.00 51 1027.4
20260501174516 17 241 0.0 1.6 0.00 0.00 0.00 49 1027.4
20260501174015 17 241 0.0 1.6 0.00 0.00 0.00 47 1027.3
20260501173511 18 241 0.0 3.2 0.00 0.00 0.00 46 1027.3
20260501173012 18 241 0.0 3.2 0.00 0.00 0.00 46 1027.3
20260501172513 18 241 0.0 6.4 0.00 0.00 0.00 44 1027.3
20260501172011 18 56 1.6 6.4 0.00 0.00 0.00 45 1027.3
20260501171516 18 213 0.0 4.8 0.00 0.00 0.00 44 1027.3
20260501171010 18 226 0.0 3.2 0.00 0.00 0.00 44 1027.3
20260501170510 18 226 0.0 3.2 0.00 0.00 0.00 43 1027.4
20260501165555 19 221 0.0 6.4 0.00 0.00 0.00 43 1027.4
20260501165055 19 222 1.6 6.4 0.00 0.00 0.00 43 1027.4
20260501164555 19 51 0.0 3.2 0.00 0.00 0.00 42 1027.5
20260501164054 19 10 0.0 4.8 0.00 0.00 0.00 41 1027.5